Location: Squirrel Cove
(50.1074°N, 124.9139°W)
Time: 13:12:08
(UTC-07:00)

PCSat - Pass Details

Date: 25 May 2022
Orbit: 784 x 795 km, 67.1° (Epoch: 26 June)

Event Time Altitude Azimuth Distance (km) Brightness Sun altitude
Rises 00:54:03 0° 323° (NW) 3,306 13.8 -18.7°
Reaches altitude 10° 00:57:01 10° 338° (NNW) 2,374 13.2 -18.8°
Maximum altitude 01:01:16 23° 30° (NNE) 1,658 11.9 -18.8°
Drops below altitude 10° 01:05:31 10° 81° (E) 2,367 12.1 -18.9°
Sets 01:08:27 0° 96° (E) 3,294 12.7 -18.9°
